EHI
0 0 0 0 0 0 0 0 0 0 0 0 1 1 0 1 2 6 10 15 15 11 10 13 15 14 14 14 15 15 13 13 13 11 9 7 5 4 3 3 2 1 0 1
0 0 0 0 0 0 0 0 0 0 0 0 1 1 0 0 1 4 8 13 14 12 13 16 17 15 14 13 13 12 12 13 12 10 8 7 5 4 3 2 1 0 0 1
0 0 0 0 0 0 0 0 0 0 0 0 1 1 0 0 1 2 5 9 12 13 15 19 19 17 14 13 12 10 10 11 11 9 7 7 5 4 3 2 0 0 0 1
0 0 0 0 0 0 0 0 0 0 0 0 0 0 0 0 0 1 2 5 9 12 15 19 20 17 14 14 13 11 9 9 9 8 7 7 5 4 3 2 1 1 1 2
0 0 0 0 0 0 0 0 0 0 0 0 0 0 0 0 1 2 3 4 8 12 17 20 19 16 15 16 16 14 10 8 7 7 7 6 4 3 3 3 2 2 4 5
0 0 0 0 0 0 0 0 0 0 0 0 0 0 0 0 1 3 4 5 7 12 17 20 20 18 18 19 18 16 13 9 8 7 7 5 4 4 4 4 4 4 5 5
0 0 0 0 0 0 0 0 0 0 0 0 0 0 0 0 1 3 4 5 7 10 14 17 18 19 21 21 20 19 17 13 9 8 8 6 6 6 6 6 4 3 3 3
0 0 0 0 0 0 0 0 0 0 0 0 0 0 0 0 1 2 3 4 7 11 13 14 15 17 22 24 25 25 22 17 12 11 10 8 7 8 7 6 4 2 1 1
0 0 0 0 0 0 0 0 0 0 0 0 0 0 0 0 1 1 1 3 7 11 13 12 12 16 22 27 29 29 26 22 18 15 13 10 8 6 5 5 4 3 2 1
0 0 0 0 0 0 0 0 0 0 0 0 0 0 0 0 0 0 1 2 5 9 11 11 11 15 23 28 30 31 28 25 20 17 15 11 7 5 4 4 3 3 3 3
0 0 0 0 0 0 0 0 0 0 0 0 0 0 0 0 0 0 1 1 2 3 6 7 9 14 21 27 30 31 29 24 19 15 13 10 7 5 4 3 3 3 3 3
0 0 0 0 0 0 0 0 0 0 0 0 0 0 0 0 0 1 1 1 0 1 2 5 9 13 19 25 29 31 28 23 18 13 10 9 8 7 5 4 3 4 4 4
0 0 0 0 0 0 0 0 0 0 0 0 0 0 0 1 1 1 2 1 0 1 3 6 9 13 18 23 27 28 26 22 18 14 11 9 8 7 6 4 4 5 5 6
0 0 0 0 0 0 0 0 0 0 0 0 0 0 0 1 2 2 2 2 1 2 5 6 8 12 18 21 22 23 22 19 17 15 13 10 8 7 6 4 3 4 5 6
0 0 0 0 0 0 0 0 0 0 0 0 0 0 0 1 1 1 2 3 3 4 6 7 8 11 17 19 18 17 17 15 13 12 11 9 8 8 6 4 3 4 5 5
0 0 0 0 0 0 0 0 0 0 0 0 0 0 0 0 1 2 3 4 5 7 8 8 9 11 15 16 14 14 15 13 11 9 8 8 8 7 6 5 6 6 7 7
0 0 0 0 0 0 0 0 0 0 0 0 0 0 0 0 1 2 3 5 6 7 8 9 9 10 11 11 11 12 14 13 10 7 6 6 7 7 6 6 8 8 9 9
0 0 0 0 0 0 0 0 0 0 0 0 0 0 0 0 0 1 1 3 3 4 7 8 8 8 7 6 7 10 12 12 10 7 6 7 7 6 5 5 6 7 8 9
0 0 0 0 0 0 0 0 0 0 0 0 0 0 0 0 0 0 0 1 1 2 5 7 7 7 7 6 6 8 10 11 8 6 6 7 7 6 4 4 4 5 6 6
0 0 0 0 0 0 0 0 0 0 0 0 0 0 0 0 0 0 1 1 2 3 4 5 6 7 7 7 7 8 9 9 8 6 6 7 7 6 4 3 3 3 4 4
0 0 0 0 0 0 0 0 0 0 0 0 0 0 0 0 0 0 1 3 4 5 5 4 4 6 6 7 8 9 9 8 8 7 7 6 6 6 4 3 3 3 3 3
0 0 0 0 0 0 0 0 0 0 0 0 0 0 0 0 0 0 1 4 6 7 5 3 3 3 4 6 9 10 9 8 7 7 7 7 6 6 4 3 3 3 3 3
0 0 0 0 0 0 0 0 0 0 0 0 0 0 0 0 0 0 2 4 6 6 4 2 1 1 1 4 6 8 9 8 7 7 7 7 6 6 4 3 3 3 3 3
0 0 0 0 0 0 0 0 0 0 0 0 0 0 0 0 0 0 1 3 3 3 2 1 0 0 0 1 2 4 6 7 7 7 7 6 6 6 5 4 3 3 3 2
0 0 0 0 0 0 0 0 0 0 0 0 0 0 0 0 0 0 0 1 1 1 1 0 0 0 0 0 0 1 3 5 6 6 5 5 6 6 6 5 3 2 1 1
0 0 0 0 0 0 0 0 0 0 0 0 0 0 0 0 0 0 0 0 0 0 0 0 0 0 0 0 0 0 2 4 5 4 4 4 6 6 6 4 2 1 0 0
Wind_Speed
3 4 3 6 6 5 3 2 3 5 3 0 2 3 4 2 2 3 4 6 7 7 4 4 5 6 6 5 6 6 6 5 5 3 3 2 2 1 1 1 1 2 2 2
4 3 6 4 4 3 2 2 4 5 2 1 1 3 3 2 4 6 7 7 7 5 4 5 5 5 6 6 6 6 6 6 6 4 3 2 2 1 1 0 1 2 2 2
5 5 3 4 3 3 3 5 5 4 4 3 2 3 2 2 2 1 2 4 6 8 8 6 6 6 6 7 8 7 6 6 5 5 3 2 2 2 1 0 0 1 2 2
4 4 3 3 4 6 5 6 5 3 1 3 1 2 5 3 2 3 3 4 5 6 6 6 6 6 6 6 5 6 6 5 5 5 5 5 4 3 2 1 1 1 1 2
5 3 4 5 6 7 6 3 3 2 3 1 1 2 7 2 3 5 6 6 6 6 7 7 6 6 4 4 4 4 5 5 4 5 6 5 3 2 2 2 2 1 1 1
5 3 5 6 3 5 3 4 5 5 4 1 3 4 6 4 6 5 5 5 6 6 6 6 5 4 3 3 4 4 5 4 4 5 5 5 5 4 4 3 2 1 1 1
3 4 3 3 2 1 4 6 3 3 2 5 2 3 8 6 5 6 6 5 5 5 6 6 6 6 5 5 5 5 5 4 3 4 4 4 5 5 5 4 3 2 1 1
2 5 4 3 5 5 5 9 7 5 5 4 1 4 7 5 3 2 3 3 3 4 5 6 6 6 6 7 6 6 6 5 4 4 4 3 3 3 3 3 3 3 2 2
5 6 4 2 3 7 5 4 6 6 2 1 3 4 6 1 2 2 1 1 2 3 4 5 5 6 6 7 7 7 7 5 4 4 4 3 3 2 2 2 2 2 1 1
7 4 4 2 3 2 5 7 5 5 5 3 3 3 4 3 3 1 0 1 2 2 3 4 4 5 5 5 5 5 6 6 5 5 4 3 3 3 3 3 2 2 1 1
4 4 4 1 3 4 3 4 5 4 4 6 3 6 5 5 4 4 3 3 3 3 3 4 3 3 4 4 5 5 5 5 5 5 4 4 3 3 3 2 2 2 2 2
3 5 2 5 3 2 4 6 7 5 3 4 4 7 3 2 3 3 3 2 1 1 1 2 3 4 4 4 5 5 5 5 5 5 4 3 3 3 3 2 2 2 2 2
4 5 1 5 4 2 2 2 3 5 5 4 4 6 2 2 1 1 2 1 1 1 1 2 3 4 4 4 4 5 5 5 5 5 5 3 2 3 3 2 2 2 2 2
4 4 6 8 6 3 2 1 3 5 4 4 6 5 4 2 2 1 1 1 2 1 1 2 2 3 4 4 4 5 4 5 6 5 5 4 3 3 3 2 2 2 2 2
4 3 3 3 3 3 2 3 4 4 6 7 6 5 6 5 4 2 2 2 3 2 1 1 2 2 3 4 4 4 4 4 5 5 5 4 4 3 2 2 2 2 2 2
3 3 1 1 1 1 1 3 4 4 4 4 3 5 5 2 1 1 2 3 3 2 2 2 2 3 3 4 4 4 4 4 5 5 4 3 3 3 3 3 2 2 2 2
1 3 3 3 2 1 3 4 5 4 4 6 7 6 2 1 3 4 4 4 4 3 3 3 2 3 3 4 4 4 4 3 4 4 4 3 3 3 3 2 2 2 2 2
4 4 3 1 1 4 6 2 3 4 3 3 4 3 4 4 3 2 2 4 4 3 2 2 2 2 2 2 3 3 4 4 4 3 2 3 3 3 2 2 2 2 2 2
4 6 4 3 2 4 4 1 1 3 3 2 3 2 2 1 3 1 1 2 3 3 3 3 3 2 3 3 3 4 3 3 3 2 2 2 3 3 2 2 2 1 2 1
3 4 5 4 3 5 5 2 1 2 3 3 2 3 3 4 2 4 2 2 1 1 1 2 2 2 3 3 4 4 3 3 2 3 2 2 3 3 3 3 2 1 2 2
3 3 3 3 3 5 5 3 1 3 6 3 3 4 5 5 4 2 2 3 2 2 2 3 3 3 2 3 5 4 3 3 3 2 2 2 2 2 2 2 2 2 2 1
2 3 3 3 3 6 3 0 3 5 2 2 3 4 4 4 2 2 3 3 3 2 2 3 3 2 1 3 4 4 3 3 3 3 2 2 2 2 2 2 2 2 2 2
2 4 4 5 6 5 2 3 4 2 2 2 3 3 5 4 3 3 3 3 3 3 3 2 3 2 1 2 3 4 3 2 2 2 2 1 1 1 2 2 2 1 2 2
2 0 1 2 4 3 3 2 2 1 2 1 2 3 4 4 4 4 3 3 3 2 3 2 3 3 1 1 2 2 2 2 3 2 2 2 2 1 1 1 1 2 2 2
3 0 0 2 4 4 4 3 2 0 1 1 1 1 3 4 4 4 4 3 3 2 2 2 3 3 2 1 1 2 2 2 3 2 2 2 2 2 2 1 1 2 2 3
3 3 3 4 4 3 4 4 2 1 1 1 2 1 2 4 4 3 3 3 2 2 2 2 2 2 2 1 1 2 2 3 3 3 3 2 2 2 2 2 0 1 1 1
Wind_Direction
77 86 194 209 188 181 168 184 259 264 270 250 246 254 259 230 189 186 186 184 190 199 182 156 162 162 154 154 163 172 174 168 154 152 159 160 197 204 187 191 169 161 147 141
51 260 230 189 168 168 175 228 266 289 308 173 241 269 262 208 209 201 192 189 193 182 157 161 158 160 161 167 175 177 179 169 167 169 164 165 159 172 183 168 146 160 156 145
184 233 186 158 170 185 214 204 226 246 342 27 95 334 315 288 262 230 208 192 185 185 183 179 175 176 172 177 182 183 178 172 169 157 127 109 84 68 73 65 130 174 170 161
225 247 182 179 200 170 243 224 205 212 76 292 99 270 283 268 270 237 221 202 196 194 184 180 182 184 187 190 176 172 165 161 163 155 157 162 166 174 193 184 175 142 141 150
235 207 184 206 215 173 214 201 173 183 165 277 353 166 279 296 258 243 225 215 209 196 184 182 184 183 180 169 159 156 149 147 154 165 171 165 162 163 141 125 132 129 124 135
237 228 201 211 210 175 164 75 57 54 83 236 233 172 268 238 233 251 231 219 211 190 180 178 174 161 158 153 151 148 145 147 155 163 165 162 158 150 141 145 151 156 148 135
302 285 248 187 121 91 107 93 39 2 12 247 244 174 245 254 245 232 221 215 209 184 176 173 172 169 166 165 166 161 156 159 162 165 170 170 168 163 163 165 169 162 160 177
209 280 247 196 177 178 170 144 158 191 215 264 287 223 254 270 277 238 199 183 177 175 177 180 181 177 177 176 172 167 170 172 168 171 175 168 160 162 168 170 164 172 184 200
188 253 280 234 184 144 145 173 164 137 160 214 265 276 299 325 0 41 80 115 173 179 181 179 178 179 178 178 178 175 171 167 172 172 163 153 157 161 165 164 162 166 175 180
170 234 282 270 81 53 141 144 109 127 154 228 276 264 257 260 262 272 259 208 204 189 182 177 181 182 178 175 171 164 163 164 164 162 162 151 156 167 163 153 157 168 174 157
155 177 299 16 167 181 113 108 112 122 153 161 224 262 238 220 215 208 222 223 197 183 184 186 184 170 164 157 157 157 155 146 145 150 148 138 144 151 149 159 176 178 177 166
156 135 243 264 258 184 152 157 143 150 202 173 173 259 288 221 220 201 216 217 197 149 158 166 150 145 155 157 159 156 151 145 147 146 140 144 145 142 148 165 183 175 179 183
141 123 81 337 343 23 98 139 143 127 124 156 170 254 323 23 31 203 197 173 114 102 100 112 129 144 155 159 158 152 151 150 146 144 138 138 152 157 168 178 188 180 183 192
127 128 168 197 216 200 199 180 152 129 150 189 210 231 291 307 286 273 225 158 123 125 120 130 146 156 156 156 153 151 155 156 154 153 150 157 178 185 178 178 187 189 188 190
115 155 199 223 229 183 195 209 174 174 185 185 215 210 243 241 230 223 187 143 131 134 123 146 155 159 156 151 152 153 152 155 154 155 162 177 183 174 168 190 198 190 187 198
77 152 158 283 264 206 242 241 200 199 193 194 186 239 248 239 142 139 168 162 169 180 178 173 151 154 164 166 165 156 150 161 150 151 162 173 175 177 186 197 197 179 186 204
121 133 130 241 282 10 260 233 204 199 200 182 203 226 197 175 190 193 199 194 196 198 188 179 177 178 182 182 170 163 162 147 139 146 154 168 170 176 187 181 169 180 193 199
155 136 139 165 93 223 243 269 201 185 210 197 197 210 192 203 204 194 191 190 193 194 196 190 182 174 182 169 148 149 145 144 144 146 155 156 159 166 163 160 178 184 185 193
167 145 133 137 176 266 291 293 168 174 246 230 206 214 174 128 83 4 271 209 203 198 190 184 178 171 160 151 145 126 124 134 138 154 176 177 171 167 163 170 190 187 175 187
79 106 121 131 159 227 248 278 283 128 266 259 197 190 169 130 143 253 233 189 192 171 156 154 144 133 134 146 140 132 139 141 165 186 189 181 175 171 179 186 176 174 185 193
63 71 124 154 199 258 265 294 110 166 237 234 187 185 172 181 202 217 164 164 162 152 145 136 135 138 151 152 142 143 154 185 210 190 170 164 176 182 183 168 163 167 177 173
163 148 168 150 185 252 282 89 190 222 243 201 196 192 183 186 156 139 152 157 151 140 132 134 132 134 143 145 146 155 188 207 190 172 168 172 176 185 173 158 177 179 170 165
199 191 189 188 211 246 269 232 252 213 212 220 203 203 175 167 168 160 159 159 160 160 153 144 145 139 132 137 153 172 210 194 165 156 167 172 164 167 169 162 163 166 163 167
292 101 159 255 273 284 295 291 301 202 206 231 196 181 165 164 164 158 156 162 165 163 166 161 154 160 191 167 159 191 201 160 150 162 180 173 167 170 158 160 167 175 188 201
259 274 255 269 285 318 327 321 291 278 94 86 95 145 165 156 161 164 165 177 176 167 170 163 170 187 214 205 186 198 183 151 159 173 183 178 176 171 161 161 179 196 216 210
222 195 196 238 248 229 273 293 297 281 255 195 154 136 150 159 166 159 170 181 171 168 162 160 183 201 215 207 226 213 184 171 173 185 190 193 187 180 173 168 152 14 243 240